Flag for Sweden Weather past 2 weeks in Malmö, Sweden

Now
48 °F

Fog.


Feels Like: 45 °F
Forecast: 53 / 56 °F
Wind: 7 mph from Southwest

Location: Malmo / Sturup

Current Time: Oct 26, 2014 at 6:23:54 AM

Latest Report: Oct 26, 2014 at 5:50 AM


Visibility: 3 mi

Pressure: 30.12 "Hg

Humidity: 100%

Dew point: 48 °F

Location of MalmöLocation

Historic Weather in Malmö — Graph

°F

Malmö temperature yesterday

Maximum temperature yesterday: 54 °F (at 8:50 PM)
Minimum temperature yesterday: 46 °F (at 5:50 AM)
Average temperature yesterday: 50 °F

Past Weeks' High & Low Weather Summary

 TemperatureHumidityPressure
High61 °F (Oct 11, 12:50 PM)100% (Oct 11, 6:20 AM)30.21 "Hg (Oct 11, 6:20 AM)
Low41 °F (Oct 13, 12:50 AM)67% (Oct 20, 6:50 PM)29.42 "Hg (Oct 21, 8:20 PM)
Average52 °F93%29.87 "Hg
* Reported Oct 11 6:20 AM — Oct 26 5:20 AM, Malmö, Weather by CustomWeather, © 2014

Note: Actual official high and low records may vary slightly from our data, if they occured in-between our weather recording intervals... More about our weather records

Advertising

Malmö weather history for previous 24 hours

 ConditionsComfort  
Time TempWeatherWind HumidityBarometerVisibility
5:20 AM
Oct 26
48 °FFog.7 mph94%30.12 "Hg2 mi
4:50 AM50 °FFog.7 mph100%30.12 "Hg2 mi
4:20 AM50 °FFog.6 mph100%30.12 "Hg2 mi
3:50 AM52 °FFog.6 mph94%30.12 "Hg2 mi
3:20 AM52 °FFog.7 mph100%30.12 "Hg2 mi
2:20 AM52 °FFog.8 mph100%30.09 "Hg2 mi
2:50 AM52 °FFog.7 mph94%30.12 "Hg3 mi
2:20 AM52 °FFog.7 mph94%30.12 "Hg3 mi
1:50 AM52 °FFog.8 mph94%30.09 "Hg2 mi
1:20 AM54 °FFog.12 mph94%30.09 "Hg2 mi
12:50 AM54 °FFog.9 mph94%30.09 "Hg2 mi
12:20 AM54 °FFog.7 mph94%30.09 "Hg2 mi
11:50 PM
Oct 25
54 °FFog.6 mph94%30.07 "Hg3 mi
11:20 PM54 °FFog.8 mph94%30.07 "Hg3 mi
10:50 PM54 °FFog.9 mph94%30.07 "Hg2 mi
10:20 PM54 °FFog.9 mph94%30.07 "Hg2 mi
9:50 PM54 °FFog.8 mph94%30.07 "Hg2 mi
9:20 PM54 °FFog.8 mph94%30.07 "Hg2 mi
8:50 PM54 °FFog.9 mph94%30.04 "Hg2 mi
8:20 PM52 °FFog.9 mph100%30.04 "Hg2 mi
7:50 PM52 °FFog.9 mph100%30.04 "Hg2 mi
7:20 PM52 °FPassing clouds.10 mph94%30.04 "Hg2 mi
6:50 PM52 °FFog.10 mph94%30.04 "Hg1 mi
6:20 PM50 °FDrizzle. Fog.10 mph100%30.04 "Hg1 mi
5:50 PM50 °FDrizzle. Fog.12 mph100%30.04 "Hg2 mi
5:20 PM50 °FDrizzle. Fog.12 mph100%30.04 "Hg2 mi
4:50 PM50 °FDrizzle. Fog.10 mph100%30.04 "Hg1 mi
4:20 PM50 °FDrizzle. Fog.10 mph94%30.04 "Hg1 mi
3:50 PM50 °FFog.10 mph94%30.04 "Hg1 mi
3:20 PM50 °FFog.12 mph94%30.04 "Hg1 mi
2:50 PM50 °FFog.13 mph94%30.04 "Hg3 mi
2:20 PM50 °FFog.13 mph94%30.04 "Hg3 mi
1:50 PM50 °FFog.12 mph94%30.04 "Hg3 mi
1:20 PM50 °FFog.12 mph94%30.04 "Hg3 mi
12:50 PM50 °FFog.13 mph94%30.04 "Hg3 mi
12:20 PM50 °FFog.13 mph94%30.04 "Hg3 mi
11:50 AM50 °FFog.14 mph94%30.04 "Hg3 mi
11:20 AM48 °FFog.13 mph94%30.04 "Hg3 mi
10:50 AM48 °FDrizzle. Fog.13 mph94%30.04 "Hg3 mi
10:20 AM48 °FLight rain. Fog.15 mph94%30.04 "Hg2 mi
9:50 AM48 °FLight rain. Fog.17 mph94%30.04 "Hg3 mi
9:20 AM48 °FLight rain. Fog.16 mph94%30.04 "Hg3 mi
8:50 AM48 °FLight rain. Fog.15 mph94%30.04 "Hg2 mi
8:20 AM48 °FLight rain. Fog.15 mph94%30.04 "Hg2 mi
7:50 AM46 °FLight rain. Low clouds.16 mph100%30.04 "Hg2 mi
7:20 AM46 °FFog.16 mph100%30.04 "Hg3 mi
6:50 AM46 °FDrizzle. Low clouds.16 mph100%30.04 "Hg2 mi
6:20 AM46 °FFog.15 mph100%30.04 "Hg3 mi
Weather by CustomWeather, © 2014

See weather overviewHow to use our weather pages